N60CG KOPF-KCVG

Flight info

Callsign N60CG
Flight time 2h 19m
Altitude 40000
Route FLMGO2 STYMY Q77 WIGVO IRQ CUBIM JAKIE7
Aircraft C700/M-VGDW/C

Departure

Time 2026-05-08 21:42
Airport Miami-Opa Locka Executive Airport (KOPF)

Arrival

Time 2026-05-09 00:02
Airport Cincinnati Northern Kentucky International Airport (KCVG)
Time Latitude Longitude Altitude Speed Heading
2026-05-08 21:23 25.90217 -80.26934 11 ft 0 kts 17°
2026-05-08 21:33 25.90214 -80.26935 11 ft 1 kts 17°
2026-05-08 21:33 25.90207 -80.26938 11 ft 1 kts
2026-05-08 21:33 25.90199 -80.26938 11 ft 1 kts 328°
2026-05-08 21:33 25.90197 -80.26936 11 ft 0 kts 318°
2026-05-08 21:37 25.90198 -80.26938 11 ft 3 kts 317°
2026-05-08 21:37 25.90207 -80.26996 11 ft 13 kts 259°
2026-05-08 21:37 25.90192 -80.27102 11 ft 18 kts 277°
2026-05-08 21:38 25.90268 -80.27248 11 ft 27 kts 304°
2026-05-08 21:38 25.90377 -80.27423 11 ft 29 kts 304°
2026-05-08 21:38 25.90499 -80.27638 11 ft 37 kts 301°
2026-05-08 21:38 25.90631 -80.27875 12 ft 36 kts 302°
2026-05-08 21:39 25.90744 -80.28081 12 ft 34 kts 301°
2026-05-08 21:39 25.90881 -80.28332 11 ft 42 kts 303°
2026-05-08 21:39 25.90992 -80.28521 11 ft 24 kts 303°
2026-05-08 21:39 25.91084 -80.28682 11 ft 17 kts 299°
2026-05-08 21:40 25.91096 -80.28763 12 ft 0 kts 255°
2026-05-08 21:40 25.91095 -80.28765 12 ft 0 kts 255°
2026-05-08 21:41 25.91089 -80.28789 12 ft 7 kts 255°
2026-05-08 21:41 25.91035 -80.28821 12 ft 13 kts 153°
2026-05-08 21:41 25.91016 -80.28796 12 ft 2 kts 122°
2026-05-08 21:41 25.90975 -80.28721 11 ft 37 kts 121°
2026-05-08 21:42 25.90660 -80.28158 34 ft 132 kts 122°
2026-05-08 21:42 25.90108 -80.27166 770 ft 169 kts 119°
2026-05-08 21:42 25.89435 -80.26016 1527 ft 192 kts 122°
2026-05-08 21:42 25.88728 -80.24753 2051 ft 193 kts 117°
2026-05-08 21:43 25.88485 -80.23265 2566 ft 207 kts 86°
2026-05-08 21:43 25.88639 -80.21565 3084 ft 238 kts 84°
2026-05-08 21:43 25.88799 -80.19623 3616 ft 264 kts 84°
2026-05-08 21:43 25.88966 -80.17564 4142 ft 273 kts 85°
2026-05-08 21:44 25.89131 -80.15430 4684 ft 280 kts 84°
2026-05-08 21:44 25.89349 -80.13272 5180 ft 279 kts 76°
2026-05-08 21:44 25.90268 -80.11389 5665 ft 281 kts 45°
2026-05-08 21:44 25.91886 -80.10293 6151 ft 278 kts 15°
2026-05-08 21:45 25.93839 -80.10244 6643 ft 282 kts 345°
2026-05-08 21:45 25.95577 -80.11182 7109 ft 284 kts 325°
2026-05-08 21:45 25.97198 -80.12467 7596 ft 289 kts 322°
2026-05-08 21:45 25.98810 -80.13818 8080 ft 293 kts 320°
2026-05-08 21:46 26.00418 -80.15229 8567 ft 295 kts 319°
2026-05-08 21:46 26.02058 -80.16644 9066 ft 300 kts 320°
2026-05-08 21:46 26.03728 -80.18060 9572 ft 304 kts 320°
2026-05-08 21:46 26.05423 -80.19503 10058 ft 308 kts 320°
2026-05-08 21:47 26.07171 -80.21005 10524 ft 331 kts 320°
2026-05-08 21:47 26.09001 -80.22569 11002 ft 330 kts 320°
2026-05-08 21:47 26.10837 -80.24136 11480 ft 335 kts 320°
2026-05-08 21:47 26.12687 -80.25722 11969 ft 335 kts 320°
2026-05-08 21:48 26.14526 -80.27294 12461 ft 334 kts 320°
2026-05-08 21:48 26.16379 -80.28885 12959 ft 337 kts 320°
2026-05-08 21:48 26.18232 -80.30473 13463 ft 337 kts 320°
2026-05-08 21:48 26.20086 -80.32065 13953 ft 336 kts 320°
2026-05-08 21:49 26.21947 -80.33659 14409 ft 338 kts 320°
2026-05-08 21:49 26.23821 -80.35266 14872 ft 341 kts 320°
2026-05-08 21:49 26.25698 -80.36878 15341 ft 340 kts 320°
2026-05-08 21:49 26.27553 -80.38475 15813 ft 342 kts 320°
2026-05-08 21:50 26.29451 -80.40104 16291 ft 346 kts 320°
2026-05-08 21:50 26.31366 -80.41751 16783 ft 348 kts 320°
2026-05-08 21:50 26.33278 -80.43395 17281 ft 347 kts 319°
2026-05-08 21:50 26.35194 -80.45045 17785 ft 351 kts 319°
2026-05-08 21:51 26.37138 -80.46718 18293 ft 354 kts 319°
2026-05-08 21:51 26.39087 -80.48396 18745 ft 352 kts 319°
2026-05-08 21:51 26.41031 -80.50073 19197 ft 354 kts 319°
2026-05-08 21:51 26.42972 -80.51745 19652 ft 357 kts 319°
2026-05-08 21:52 26.44964 -80.53464 20124 ft 357 kts 318°
2026-05-08 21:52 26.46911 -80.55119 20596 ft 357 kts 321°
2026-05-08 21:52 26.49100 -80.56488 21070 ft 365 kts 330°
2026-05-08 21:52 26.51518 -80.57447 21561 ft 373 kts 339°
2026-05-08 21:53 26.54033 -80.58222 22065 ft 375 kts 339°
2026-05-08 21:53 26.56545 -80.59033 22574 ft 377 kts 338°
2026-05-08 21:53 26.59075 -80.59845 23091 ft 378 kts 338°
2026-05-08 21:53 26.61607 -80.60643 23610 ft 379 kts 338°
2026-05-08 21:54 26.64159 -80.61452 24045 ft 382 kts 338°
2026-05-08 21:54 26.66727 -80.62269 24492 ft 384 kts 338°
2026-05-08 21:54 26.69278 -80.63083 24941 ft 387 kts 338°
2026-05-08 21:54 26.71873 -80.63908 25397 ft 389 kts 338°
2026-05-08 21:55 26.74487 -80.64740 25865 ft 392 kts 338°
2026-05-08 21:55 26.77119 -80.65578 26327 ft 394 kts 338°
2026-05-08 21:55 26.79766 -80.66422 26819 ft 396 kts 338°
2026-05-08 21:56 26.85116 -80.68128 27819 ft 402 kts 337°
2026-05-08 21:56 26.87822 -80.68993 28315 ft 405 kts 337°
2026-05-08 21:56 26.90545 -80.69862 28838 ft 409 kts 337°
2026-05-08 21:56 26.93252 -80.70839 29368 ft 409 kts 334°
2026-05-08 21:57 26.95934 -80.71870 29900 ft 413 kts 334°
2026-05-08 21:57 26.98670 -80.72904 30376 ft 417 kts 334°
2026-05-08 21:57 27.01430 -80.73937 30833 ft 419 kts 334°
2026-05-08 21:57 27.04208 -80.74987 31303 ft 421 kts 334°
2026-05-08 21:58 27.06996 -80.76046 31780 ft 423 kts 334°
2026-05-08 21:58 27.09803 -80.77110 32265 ft 426 kts 334°
2026-05-08 21:58 27.12624 -80.78178 32761 ft 429 kts 334°
2026-05-08 21:58 27.15468 -80.79254 33264 ft 432 kts 334°
2026-05-08 21:59 27.18280 -80.80322 33769 ft 432 kts 334°
2026-05-08 21:59 27.21116 -80.81394 34240 ft 428 kts 334°
2026-05-08 21:59 27.23927 -80.82461 34694 ft 423 kts 334°
2026-05-08 21:59 27.26707 -80.83518 35156 ft 421 kts 334°
2026-05-08 22:00 27.29477 -80.84575 35623 ft 420 kts 334°
2026-05-08 22:00 27.32244 -80.85629 36102 ft 419 kts 333°
2026-05-08 22:00 27.34970 -80.86747 36590 ft 416 kts 332°
2026-05-08 22:00 27.37685 -80.87868 37095 ft 413 kts 332°
2026-05-08 22:01 27.40379 -80.88970 37605 ft 411 kts 333°
2026-05-08 22:01 27.43053 -80.90065 38133 ft 407 kts 332°
2026-05-08 22:01 27.45699 -80.91156 38659 ft 405 kts 332°
2026-05-08 22:01 27.48336 -80.92243 39110 ft 403 kts 332°
2026-05-08 22:02 27.50929 -80.93310 39566 ft 400 kts 332°
2026-05-08 22:02 27.53534 -80.94383 39951 ft 399 kts 332°
2026-05-08 22:02 27.56175 -80.95478 39961 ft 408 kts 332°
2026-05-08 22:03 27.61577 -80.97703 39965 ft 416 kts 332°
2026-05-08 22:03 27.66984 -80.99934 39966 ft 412 kts 332°
2026-05-08 22:04 27.72351 -81.02154 39962 ft 410 kts 332°
2026-05-08 22:04 27.77726 -81.04380 39963 ft 413 kts 332°
2026-05-08 22:05 27.83151 -81.06626 39968 ft 416 kts 332°
2026-05-08 22:05 27.88571 -81.08873 39968 ft 414 kts 332°
2026-05-08 22:06 27.93952 -81.11108 39978 ft 411 kts 332°
2026-05-08 22:06 27.99283 -81.13324 39976 ft 410 kts 332°
2026-05-08 22:07 28.04632 -81.15632 39984 ft 410 kts 328°
2026-05-08 22:07 28.09835 -81.18330 39982 ft 411 kts 328°
2026-05-08 22:08 28.15037 -81.20990 39980 ft 408 kts 328°
2026-05-08 22:08 28.20188 -81.23653 39975 ft 406 kts 328°
2026-05-08 22:09 28.25346 -81.26314 39977 ft 409 kts 328°
2026-05-08 22:09 28.30541 -81.28997 39979 ft 411 kts 328°
2026-05-08 22:10 28.35713 -81.31666 39973 ft 409 kts 328°
2026-05-08 22:10 28.40895 -81.34301 39971 ft 406 kts 328°
2026-05-08 22:11 28.46044 -81.36939 39972 ft 406 kts 328°
2026-05-08 22:11 28.51231 -81.39592 39957 ft 410 kts 328°
2026-05-08 22:12 28.56455 -81.42267 39953 ft 410 kts 327°
2026-05-08 22:12 28.61596 -81.44903 39957 ft 406 kts 327°
2026-05-08 22:13 28.66739 -81.47547 39963 ft 406 kts 327°
2026-05-08 22:13 28.71914 -81.50206 39968 ft 409 kts 327°
2026-05-08 22:14 28.77111 -81.52879 39972 ft 410 kts 327°
2026-05-08 22:14 28.82298 -81.55549 39968 ft 407 kts 327°
2026-05-08 22:15 28.86574 -81.57755 39966 ft 404 kts 327°
2026-05-08 22:15 28.91809 -81.60207 39962 ft 413 kts 334°
2026-05-08 22:16 28.97599 -81.61377 39971 ft 432 kts 346°
2026-05-08 22:16 29.03598 -81.61914 39979 ft 432 kts 345°
2026-05-08 22:17 29.09585 -81.62465 39985 ft 430 kts 345°
2026-05-08 22:17 29.15505 -81.63005 39983 ft 428 kts 345°
2026-05-08 22:18 29.21442 -81.63551 39990 ft 429 kts 345°
2026-05-08 22:18 29.27408 -81.64098 39989 ft 431 kts 345°
2026-05-08 22:19 29.33409 -81.64648 39992 ft 433 kts 345°
2026-05-08 22:19 29.39433 -81.65201 39992 ft 433 kts 345°
2026-05-08 22:20 29.45417 -81.65750 39997 ft 430 kts 345°
2026-05-08 22:20 29.51323 -81.66297 39993 ft 429 kts 345°
2026-05-08 22:21 29.57311 -81.66851 40006 ft 432 kts 345°
2026-05-08 22:21 29.63334 -81.67406 40005 ft 435 kts 345°
2026-05-08 22:22 29.69359 -81.67960 40006 ft 432 kts 345°
2026-05-08 22:22 29.75299 -81.68511 40006 ft 430 kts 345°
2026-05-08 22:23 29.81251 -81.69064 40011 ft 430 kts 345°
2026-05-08 22:23 29.87248 -81.69622 40019 ft 433 kts 345°
2026-05-08 22:24 29.93276 -81.70177 40022 ft 432 kts 345°
2026-05-08 22:24 29.99219 -81.70731 40023 ft 429 kts 344°
2026-05-08 22:25 30.05158 -81.71284 40024 ft 427 kts 344°
2026-05-08 22:25 30.11106 -81.71843 40021 ft 430 kts 344°
2026-05-08 22:26 30.17107 -81.72401 40020 ft 433 kts 344°
2026-05-08 22:26 30.23071 -81.72956 40016 ft 431 kts 344°
2026-05-08 22:27 30.29033 -81.73515 40029 ft 428 kts 343°
2026-05-08 22:27 30.34957 -81.74070 40026 ft 426 kts 343°
2026-05-08 22:28 30.40889 -81.74628 40009 ft 428 kts 343°
2026-05-08 22:28 30.46847 -81.75188 40007 ft 431 kts 343°
2026-05-08 22:29 30.52807 -81.75748 40008 ft 432 kts 343°
2026-05-08 22:29 30.58792 -81.76309 40007 ft 430 kts 343°
2026-05-08 22:30 30.64662 -81.77114 40015 ft 418 kts 338°
2026-05-08 22:30 30.70435 -81.78267 40005 ft 423 kts 339°
2026-05-08 22:31 30.76199 -81.79411 40015 ft 415 kts 338°
2026-05-08 22:31 30.81848 -81.80552 40018 ft 415 kts 338°
2026-05-08 22:32 30.87578 -81.81698 40017 ft 419 kts 338°
2026-05-08 22:32 30.93334 -81.82852 40018 ft 419 kts 338°
2026-05-08 22:33 30.99048 -81.84000 40022 ft 415 kts 338°
2026-05-08 22:33 31.04734 -81.85148 40021 ft 415 kts 338°
2026-05-08 22:34 31.10416 -81.86293 40020 ft 418 kts 338°
2026-05-08 22:34 31.16172 -81.87453 40024 ft 420 kts 338°
2026-05-08 22:35 31.21923 -81.88611 40027 ft 418 kts 338°
2026-05-08 22:35 31.27651 -81.89771 40029 ft 416 kts 338°
2026-05-08 22:36 31.33342 -81.90924 40029 ft 415 kts 338°
2026-05-08 22:36 31.39063 -81.92086 40034 ft 418 kts 338°
2026-05-08 22:37 31.44823 -81.93255 40038 ft 421 kts 338°
2026-05-08 22:37 31.50543 -81.94414 40032 ft 419 kts 338°
2026-05-08 22:38 31.56275 -81.95582 40039 ft 417 kts 338°
2026-05-08 22:38 31.61979 -81.96743 40034 ft 415 kts 338°
2026-05-08 22:39 31.67702 -81.97913 40035 ft 418 kts 338°
2026-05-08 22:39 31.73457 -81.99087 40032 ft 421 kts 338°
2026-05-08 22:40 31.79233 -82.00267 40037 ft 421 kts 338°
2026-05-08 22:40 31.84951 -82.01436 40025 ft 418 kts 338°
2026-05-08 22:41 31.90899 -82.01930 40027 ft 431 kts 346°
2026-05-08 22:41 31.96872 -82.02150 40024 ft 433 kts 345°
2026-05-08 22:42 32.02930 -82.02351 40024 ft 436 kts 346°
2026-05-08 22:42 32.08978 -82.02559 40025 ft 433 kts 345°
2026-05-08 22:43 32.14980 -82.02768 40028 ft 430 kts 345°
2026-05-08 22:43 32.20933 -82.02977 40020 ft 432 kts 345°
2026-05-08 22:44 32.26953 -82.03185 40023 ft 435 kts 345°
2026-05-08 22:44 32.33002 -82.03391 40022 ft 434 kts 345°
2026-05-08 22:45 32.39027 -82.03602 40028 ft 431 kts 345°
2026-05-08 22:45 32.45012 -82.03807 40022 ft 429 kts 345°
2026-05-08 22:46 32.50912 -82.04364 40025 ft 427 kts 342°
2026-05-08 22:46 32.56857 -82.04919 40028 ft 430 kts 342°
2026-05-08 22:47 32.62794 -82.05508 40030 ft 427 kts 341°
2026-05-08 22:47 32.68656 -82.06078 40026 ft 424 kts 341°
2026-05-08 22:48 32.74532 -82.06660 40028 ft 425 kts 341°
2026-05-08 22:48 32.80444 -82.07239 40025 ft 428 kts 341°
2026-05-08 22:49 32.86396 -82.07822 40027 ft 428 kts 341°
2026-05-08 22:49 32.95239 -82.08693 40026 ft 423 kts 341°
2026-05-08 22:50 33.01126 -82.09279 40024 ft 427 kts 341°
2026-05-08 22:50 33.07073 -82.09864 40024 ft 429 kts 341°
2026-05-08 22:51 33.12963 -82.10444 40025 ft 425 kts 341°
2026-05-08 22:51 33.18843 -82.11028 40025 ft 423 kts 341°
2026-05-08 22:52 33.24728 -82.11616 40027 ft 426 kts 341°
2026-05-08 22:52 33.30668 -82.12206 40028 ft 429 kts 341°
2026-05-08 22:53 33.36585 -82.12790 40046 ft 427 kts 340°
2026-05-08 22:53 33.42491 -82.13380 40045 ft 424 kts 340°
2026-05-08 22:54 33.48376 -82.13971 40043 ft 425 kts 340°
2026-05-08 22:54 33.54292 -82.14560 40046 ft 428 kts 340°
2026-05-08 22:55 33.60243 -82.15154 40045 ft 428 kts 340°
2026-05-08 22:55 33.66138 -82.15744 40042 ft 426 kts 340°
2026-05-08 22:56 33.71967 -82.16517 40042 ft 410 kts 334°
2026-05-08 22:56 33.77528 -82.17956 40038 ft 410 kts 333°
2026-05-08 22:57 33.83137 -82.19380 40035 ft 412 kts 333°
2026-05-08 22:57 33.88761 -82.20832 40035 ft 415 kts 333°
2026-05-08 22:58 33.94372 -82.22268 40039 ft 413 kts 333°
2026-05-08 22:58 33.99967 -82.23711 40044 ft 409 kts 332°
2026-05-08 22:59 34.05542 -82.25152 40048 ft 411 kts 332°
2026-05-08 22:59 34.11157 -82.26601 40050 ft 414 kts 332°
2026-05-08 23:00 34.16797 -82.28053 40054 ft 413 kts 332°
2026-05-08 23:00 34.22383 -82.29502 40055 ft 409 kts 332°
2026-05-08 23:01 34.27967 -82.30956 40053 ft 413 kts 332°
2026-05-08 23:01 34.33613 -82.32417 40048 ft 416 kts 332°
2026-05-08 23:02 34.39261 -82.33882 40045 ft 413 kts 332°
2026-05-08 23:02 34.44862 -82.35341 40040 ft 410 kts 332°
2026-05-08 23:03 34.50424 -82.36795 40037 ft 412 kts 332°
2026-05-08 23:03 34.56056 -82.38263 40040 ft 415 kts 332°
2026-05-08 23:04 34.60770 -82.39496 40042 ft 416 kts 332°
2026-05-08 23:04 34.66426 -82.40971 40034 ft 414 kts 332°
2026-05-08 23:05 34.72042 -82.42445 40040 ft 411 kts 332°
2026-05-08 23:05 34.77629 -82.43911 40044 ft 409 kts 332°
2026-05-08 23:06 34.83204 -82.45381 40045 ft 412 kts 332°
2026-05-08 23:06 34.88792 -82.46848 40050 ft 414 kts 332°
2026-05-08 23:07 34.94408 -82.48325 40037 ft 412 kts 332°
2026-05-08 23:07 34.99998 -82.49802 40034 ft 409 kts 332°
2026-05-08 23:08 35.05541 -82.51266 40031 ft 406 kts 332°
2026-05-08 23:08 35.11062 -82.52730 40021 ft 406 kts 332°
2026-05-08 23:09 35.16599 -82.54198 40023 ft 408 kts 332°
2026-05-08 23:09 35.22121 -82.55660 40030 ft 408 kts 332°
2026-05-08 23:10 35.27661 -82.57133 40038 ft 406 kts 332°
2026-05-08 23:10 35.33172 -82.58598 40046 ft 404 kts 331°
2026-05-08 23:11 35.38668 -82.60065 40049 ft 403 kts 331°
2026-05-08 23:11 35.44152 -82.61528 40046 ft 404 kts 331°
2026-05-08 23:12 35.49671 -82.63005 40044 ft 407 kts 331°
2026-05-08 23:12 35.55193 -82.64481 40035 ft 409 kts 331°
2026-05-08 23:13 35.60740 -82.65963 40026 ft 406 kts 331°
2026-05-08 23:13 35.66239 -82.67440 40011 ft 403 kts 331°
2026-05-08 23:14 35.71741 -82.68923 39993 ft 405 kts 331°
2026-05-08 23:14 35.77267 -82.70409 39979 ft 407 kts 331°
2026-05-08 23:15 35.82825 -82.71908 39982 ft 409 kts 331°
2026-05-08 23:15 35.88397 -82.73407 39980 ft 408 kts 331°
2026-05-08 23:16 35.93881 -82.74888 39987 ft 403 kts 330°
2026-05-08 23:16 35.99338 -82.76370 39994 ft 402 kts 330°
2026-05-08 23:17 36.04874 -82.77876 39999 ft 411 kts 331°
2026-05-08 23:17 36.10442 -82.79371 40005 ft 406 kts 330°
2026-05-08 23:18 36.15929 -82.80876 40009 ft 405 kts 330°
2026-05-08 23:18 36.21439 -82.82375 40010 ft 410 kts 331°
2026-05-08 23:19 36.27015 -82.83889 40009 ft 409 kts 331°
2026-05-08 23:19 36.32568 -82.85405 40000 ft 406 kts 330°
2026-05-08 23:20 36.38070 -82.86913 39989 ft 406 kts 330°
2026-05-08 23:20 36.43615 -82.88432 39983 ft 408 kts 330°
2026-05-08 23:21 36.49184 -82.89958 39972 ft 411 kts 331°
2026-05-08 23:21 36.54714 -82.91473 39964 ft 408 kts 330°
2026-05-08 23:22 36.60243 -82.92995 39962 ft 405 kts 330°
2026-05-08 23:22 36.65761 -82.94518 39967 ft 407 kts 331°
2026-05-08 23:23 36.71283 -82.96041 39966 ft 410 kts 331°
2026-05-08 23:23 36.76859 -82.97575 39601 ft 407 kts 331°
2026-05-08 23:24 36.79596 -82.98321 39253 ft 398 kts 330°
2026-05-08 23:24 36.82273 -82.99061 38910 ft 390 kts 329°
2026-05-08 23:24 36.84902 -82.99797 38556 ft 385 kts 329°
2026-05-08 23:24 36.87444 -83.00649 38184 ft 372 kts 324°
2026-05-08 23:25 36.89857 -83.01768 37863 ft 369 kts 320°
2026-05-08 23:25 36.92207 -83.03091 37523 ft 371 kts 319°
2026-05-08 23:25 36.94576 -83.04401 37202 ft 373 kts 319°
2026-05-08 23:25 36.96949 -83.05694 36855 ft 371 kts 319°
2026-05-08 23:26 36.99301 -83.06993 36541 ft 368 kts 319°
2026-05-08 23:26 37.01635 -83.08299 36217 ft 367 kts 319°
2026-05-08 23:26 37.03972 -83.09608 35894 ft 370 kts 319°
2026-05-08 23:26 37.06346 -83.10931 35554 ft 376 kts 319°
2026-05-08 23:27 37.08750 -83.12259 35239 ft 378 kts 319°
2026-05-08 23:27 37.11165 -83.13597 34906 ft 378 kts 319°
2026-05-08 23:27 37.13534 -83.14918 34580 ft 379 kts 319°
2026-05-08 23:27 37.15946 -83.16266 34247 ft 379 kts 319°
2026-05-08 23:28 37.18357 -83.17608 33901 ft 378 kts 319°
2026-05-08 23:28 37.20764 -83.18947 33546 ft 377 kts 319°
2026-05-08 23:28 37.23159 -83.20287 33216 ft 378 kts 319°
2026-05-08 23:28 37.25574 -83.21649 32884 ft 383 kts 319°
2026-05-08 23:29 37.28034 -83.23029 32550 ft 389 kts 320°
2026-05-08 23:29 37.30510 -83.24400 32209 ft 388 kts 321°
2026-05-08 23:29 37.32970 -83.25768 31862 ft 385 kts 321°
2026-05-08 23:29 37.35420 -83.27149 31514 ft 386 kts 321°
2026-05-08 23:30 37.37887 -83.28549 31188 ft 392 kts 321°
2026-05-08 23:30 37.40401 -83.29960 30824 ft 396 kts 322°
2026-05-08 23:30 37.42883 -83.31335 30482 ft 394 kts 322°
2026-05-08 23:30 37.45372 -83.32725 30137 ft 389 kts 322°
2026-05-08 23:31 37.47826 -83.34117 29761 ft 385 kts 322°
2026-05-08 23:31 37.50270 -83.35504 29404 ft 386 kts 323°
2026-05-08 23:31 37.52739 -83.36894 29065 ft 387 kts 323°
2026-05-08 23:31 37.55197 -83.38254 28727 ft 384 kts 324°
2026-05-08 23:32 37.57639 -83.39598 28384 ft 382 kts 324°
2026-05-08 23:32 37.60064 -83.40951 28045 ft 381 kts 324°
2026-05-08 23:32 37.62488 -83.42308 27710 ft 380 kts 324°
2026-05-08 23:32 37.64904 -83.43655 27376 ft 380 kts 324°
2026-05-08 23:33 37.67321 -83.44998 27039 ft 380 kts 324°
2026-05-08 23:33 37.69737 -83.46345 26700 ft 377 kts 325°
2026-05-08 23:33 37.72129 -83.47679 26369 ft 374 kts 325°
2026-05-08 23:33 37.74503 -83.49008 26040 ft 372 kts 325°
2026-05-08 23:34 37.76835 -83.50313 25711 ft 370 kts 325°
2026-05-08 23:34 37.79221 -83.51648 25378 ft 370 kts 326°
2026-05-08 23:34 37.81547 -83.52952 25049 ft 370 kts 326°
2026-05-08 23:34 37.83899 -83.54272 24723 ft 369 kts 326°
2026-05-08 23:35 37.86126 -83.55789 24399 ft 358 kts 319°
2026-05-08 23:35 37.88136 -83.57576 24080 ft 349 kts 313°
2026-05-08 23:35 37.89939 -83.59607 23768 ft 344 kts 308°
2026-05-08 23:35 37.91537 -83.61852 23456 ft 342 kts 303°
2026-05-08 23:36 37.93078 -83.64155 23125 ft 341 kts 304°
2026-05-08 23:36 37.94624 -83.66422 22827 ft 338 kts 304°
2026-05-08 23:36 37.96150 -83.68677 22532 ft 336 kts 304°
2026-05-08 23:36 37.97647 -83.70910 22233 ft 336 kts 304°
2026-05-08 23:37 37.99167 -83.73169 21941 ft 337 kts 304°
2026-05-08 23:37 38.00694 -83.75432 21650 ft 337 kts 305°
2026-05-08 23:37 38.02213 -83.77691 21355 ft 335 kts 305°
2026-05-08 23:37 38.03722 -83.79937 21062 ft 334 kts 305°
2026-05-08 23:38 38.05226 -83.82176 20770 ft 333 kts 305°
2026-05-08 23:38 38.06729 -83.84417 20480 ft 333 kts 305°
2026-05-08 23:38 38.08228 -83.86650 20180 ft 332 kts 305°
2026-05-08 23:38 38.09725 -83.88886 19895 ft 331 kts 305°
2026-05-08 23:39 38.11218 -83.91103 19605 ft 330 kts 306°
2026-05-08 23:39 38.12893 -83.93124 19312 ft 334 kts 314°
2026-05-08 23:39 38.14793 -83.94858 19017 ft 339 kts 322°
2026-05-08 23:39 38.16833 -83.96317 18713 ft 340 kts 324°
2026-05-08 23:40 38.18889 -83.97790 18413 ft 339 kts 324°
2026-05-08 23:40 38.20936 -83.99271 18090 ft 337 kts 324°
2026-05-08 23:40 38.22967 -84.00729 17834 ft 333 kts 324°
2026-05-08 23:40 38.24986 -84.02175 17567 ft 333 kts 324°
2026-05-08 23:41 38.27012 -84.03636 17278 ft 334 kts 324°
2026-05-08 23:41 38.29032 -84.05087 16977 ft 332 kts 324°
2026-05-08 23:41 38.31032 -84.06525 16680 ft 329 kts 324°
2026-05-08 23:41 38.33016 -84.07952 16389 ft 327 kts 324°
2026-05-08 23:42 38.34987 -84.09376 16099 ft 326 kts 324°
2026-05-08 23:42 38.36959 -84.10798 15808 ft 326 kts 324°
2026-05-08 23:42 38.38933 -84.12222 15512 ft 325 kts 325°
2026-05-08 23:42 38.40878 -84.13626 15231 ft 324 kts 325°
2026-05-08 23:43 38.42834 -84.15038 14941 ft 322 kts 325°
2026-05-08 23:43 38.44775 -84.16442 14658 ft 320 kts 325°
2026-05-08 23:43 38.46706 -84.17837 14378 ft 318 kts 325°
2026-05-08 23:43 38.48624 -84.19231 14093 ft 317 kts 325°
2026-05-08 23:44 38.50540 -84.20618 13814 ft 316 kts 325°
2026-05-08 23:44 38.52448 -84.22001 13476 ft 313 kts 326°
2026-05-08 23:44 38.54335 -84.23368 13223 ft 311 kts 326°
2026-05-08 23:44 38.56225 -84.24742 12949 ft 313 kts 326°
2026-05-08 23:45 38.58122 -84.26120 12673 ft 313 kts 326°
2026-05-08 23:45 38.59991 -84.27475 12402 ft 311 kts 325°
2026-05-08 23:45 38.61867 -84.28840 12123 ft 309 kts 325°
2026-05-08 23:45 38.63737 -84.30196 11854 ft 309 kts 325°
2026-05-08 23:46 38.65591 -84.31581 11577 ft 307 kts 323°
2026-05-08 23:46 38.67387 -84.33049 11309 ft 306 kts 322°
2026-05-08 23:46 38.69173 -84.34505 11034 ft 299 kts 322°
2026-05-08 23:46 38.70879 -84.35865 10777 ft 279 kts 322°
2026-05-08 23:47 38.72479 -84.37153 10539 ft 265 kts 322°
2026-05-08 23:47 38.74033 -84.38422 10302 ft 266 kts 321°
2026-05-08 23:47 38.75609 -84.39705 10068 ft 270 kts 321°
2026-05-08 23:47 38.77207 -84.40998 9831 ft 272 kts 321°
2026-05-08 23:48 38.78811 -84.42290 9572 ft 271 kts 321°
2026-05-08 23:48 38.80379 -84.43565 9324 ft 267 kts 321°
2026-05-08 23:48 38.81904 -84.44791 9096 ft 252 kts 321°
2026-05-08 23:48 38.83331 -84.45947 8884 ft 232 kts 321°
2026-05-08 23:49 38.84649 -84.47020 8678 ft 218 kts 320°
2026-05-08 23:49 38.85926 -84.48068 8478 ft 221 kts 320°
2026-05-08 23:49 38.87248 -84.49147 8295 ft 228 kts 321°
2026-05-08 23:49 38.88591 -84.50235 8098 ft 229 kts 321°
2026-05-08 23:50 38.89932 -84.51327 7910 ft 229 kts 321°
2026-05-08 23:50 38.91282 -84.52422 7709 ft 230 kts 321°
2026-05-08 23:50 38.92704 -84.53406 7454 ft 238 kts 333°
2026-05-08 23:50 38.94343 -84.53865 7113 ft 244 kts 349°
2026-05-08 23:51 38.96052 -84.53792 6768 ft 247 kts
2026-05-08 23:51 38.97766 -84.53615 6432 ft 247 kts 359°
2026-05-08 23:51 38.98902 -84.53534 6201 ft 246 kts 359°
2026-05-08 23:51 39.00609 -84.53458 5846 ft 245 kts 355°
2026-05-08 23:52 39.02314 -84.53471 5480 ft 244 kts 355°
2026-05-08 23:52 39.04000 -84.53456 5141 ft 242 kts 356°
2026-05-08 23:52 39.05689 -84.53439 4779 ft 242 kts 356°
2026-05-08 23:52 39.07368 -84.53449 4425 ft 241 kts 355°
2026-05-08 23:53 39.09032 -84.53452 4065 ft 237 kts 356°
2026-05-08 23:53 39.10682 -84.53433 3720 ft 238 kts 358°
2026-05-08 23:53 39.12333 -84.53316 3372 ft 237 kts 360°
2026-05-08 23:53 39.13974 -84.53189 3034 ft 236 kts 360°
2026-05-08 23:54 39.15571 -84.53061 2995 ft 225 kts 360°
2026-05-08 23:54 39.17164 -84.52927 2991 ft 235 kts
2026-05-08 23:54 39.18806 -84.52794 2994 ft 236 kts 360°
2026-05-08 23:55 39.22091 -84.52545 2994 ft 236 kts
2026-05-08 23:55 39.23733 -84.52418 3002 ft 236 kts
2026-05-08 23:55 39.25348 -84.52358 2991 ft 233 kts 349°
2026-05-08 23:55 39.26755 -84.53189 2997 ft 219 kts 311°
2026-05-08 23:56 39.27420 -84.54859 2997 ft 209 kts 273°
2026-05-08 23:56 39.27174 -84.56653 2999 ft 203 kts 246°
2026-05-08 23:56 39.26613 -84.58324 3006 ft 202 kts 244°
2026-05-08 23:56 39.26046 -84.59981 3003 ft 202 kts 244°
2026-05-08 23:57 39.25356 -84.61540 3000 ft 201 kts 225°
2026-05-08 23:57 39.24130 -84.62409 2998 ft 202 kts 202°
2026-05-08 23:57 39.22812 -84.63028 3006 ft 202 kts 202°
2026-05-08 23:57 39.21529 -84.63632 3017 ft 183 kts 201°
2026-05-08 23:58 39.20394 -84.64153 3006 ft 168 kts 202°
2026-05-08 23:58 39.19247 -84.64515 3003 ft 174 kts 188°
2026-05-08 23:58 39.18020 -84.64572 3007 ft 177 kts 186°
2026-05-08 23:58 39.16791 -84.64618 3006 ft 176 kts 185°
2026-05-08 23:59 39.15559 -84.64618 2868 ft 181 kts 184°
2026-05-08 23:59 39.14300 -84.64626 2627 ft 179 kts 184°
2026-05-08 23:59 39.13068 -84.64630 2396 ft 173 kts 183°
2026-05-08 23:59 39.11919 -84.64633 2169 ft 160 kts 185°
2026-05-09 00:00 39.10854 -84.64644 1970 ft 145 kts 183°
2026-05-09 00:00 39.09952 -84.64621 1791 ft 120 kts 184°
2026-05-09 00:00 39.09099 -84.64660 1644 ft 135 kts 184°
2026-05-09 00:00 39.08153 -84.64657 1493 ft 135 kts 180°
2026-05-09 00:01 39.07298 -84.64640 1280 ft 115 kts 182°
2026-05-09 00:01 39.06509 -84.64655 1088 ft 113 kts 180°
2026-05-09 00:01 39.05723 -84.64661 963 ft 113 kts 181°
2026-05-09 00:01 39.04978 -84.64665 892 ft 96 kts 180°
2026-05-09 00:02 39.04538 -84.64657 894 ft 30 kts 179°
2026-05-09 00:02 39.04440 -84.64713 895 ft 9 kts 284°
2026-05-09 00:02 39.04454 -84.64802 894 ft 9 kts 272°
2026-05-09 00:02 39.04459 -84.64940 890 ft 22 kts 272°
2026-05-09 00:03 39.04461 -84.65094 883 ft 20 kts 270°
2026-05-09 00:03 39.04461 -84.65307 879 ft 25 kts 269°
2026-05-09 00:03 39.04459 -84.65507 876 ft 15 kts 270°
2026-05-09 00:03 39.04426 -84.65588 876 ft 14 kts 186°
2026-05-09 00:04 39.04347 -84.65598 877 ft 4 kts 181°
2026-05-09 00:04 39.04341 -84.65561 877 ft 0 kts 88°